This demonstration page uses our WeatherBlox Daily Observations layout. Learn more.

39.92423, -83.80882

Hourly Observations for April 13, 2019

Temp ( °F °C ) Dew Point ( °F °C ) Humidity (%) Winds ( mph kmh ) Pressure ( in mb ) Visibility ( mi km ) Precip ( " mm )
12:56 am 00:56 Clear 50 10 35 1.7 57 57 SW 6 9 30.06 1018 10 16.0934 0 0
1:56 am 01:56 Clear 51 10.6 34 1.1 52 52 SSW 6 9 30.06 1018 10 16.0934 0 0
2:56 am 02:56 Clear 51 10.6 34 1.1 52 52 SSW 5 7 30.06 1018 10 16.0934 0 0
3:56 am 03:56 Clear 50 10 33 0.6 52 52 SSW 6 9 30.06 1018 10 16.0934 0 0
4:56 am 04:56 Clear 46 7.8 34 1.1 63 63 SW 6 9 30.08 1019 10 16.0934 0 0
5:56 am 05:56 Clear 45 7.2 34 1.1 66 66 W 3 6 30.09 1019 10 16.0934 0 0
6:56 am 06:56 Clear 43 6.1 34 1.1 71 71 NW 6 9 30.09 1019 10 16.0934 0 0
7:56 am 07:56 Sunny 44 6.7 38 3.3 79 79 SW 3 6 30.12 1020 10 16.0934 0 0
8:56 am 08:56 Sunny 51 10.6 36 2.2 56 56 WSW 3 6 30.15 1021 10 16.0934 0 0
9:56 am 09:56 Sunny 53 11.7 31 -0.6 43 43 NW 7 11 30.14 1021 10 16.0934 0 0
10:56 am 10:56 Sunny 54 12.2 33 0.6 45 45 WNW 8 13 30.15 1021 10 16.0934 0 0
11:56 am 11:56 Sunny 57 13.9 32 0 39 39 NW 7 11 30.15 1021 10 16.0934 0 0
12:56 pm 12:56 Sunny 60 15.6 32 0 35 35 SSW 6 9 30.13 1020 10 16.0934 0 0
1:56 pm 13:56 Sunny 62 16.7 34 1.1 35 35 WSW 5 7 30.11 1020 10 16.0934 0 0
2:56 pm 14:56 Sunny 63 17.2 34 1.1 34 34 SSW 5 7 30.1 1019 10 16.0934 0 0
3:56 pm 15:56 Sunny 64 17.8 36 2.2 35 35 WNW 9 15 30.09 1019 10 16.0934 0 0
4:56 pm 16:56 Sunny 65 18.3 37 2.8 36 36 WNW 8 13 30.05 1018 10 16.0934 0 0
5:56 pm 17:56 Sunny 65 18.3 36 2.2 34 34 VRB 3 6 30.03 1017 10 16.0934 0 0
6:56 pm 18:56 Cloudy 63 17.2 36 2.2 37 37 N 5 7 30.01 1016 10 16.0934 0 0
7:56 pm 19:56 Cloudy 60 15.6 37 2.8 42 42 N 6 9 30.01 1016 10 16.0934 0 0
8:56 pm 20:56 Cloudy 59 15 37 2.8 44 44 N 6 9 30.01 1016 10 16.0934 0 0
9:56 pm 21:56 Cloudy 57 13.9 37 2.8 47 47 N 5 7 29.99 1016 10 16.0934 0 0
10:56 pm 22:56 Cloudy 57 13.9 37 2.8 47 47 NNE 7 11 29.98 1015 10 16.0934 0 0
11:56 pm 23:56 Cloudy 56 13.3 37 2.8 49 49 NNE 9 15 29.96 1015 10 16.0934 0 0

Powered by AerisWeather